FENGYUN 1C DEB

Satellite information

Favourite Embed

Satellite Type and Status

DEBRISIN ORBIT

Key statistics

Satellite FENGYUN 1C DEB at a glance.

Uptime

9493

Days in orbit

Revolutions

≈ 14.3

Per day

Orbit

SSO

Sun Synchronous Orbit

Inclination

98.8

Latest

Satellite identification and parameters

Extended collection of information and parameters for FENGYUN 1C DEB.

Object identification

Identified? True

Debris? True

Object name: FENGYUN 1C DEB

International designator: 1999-025CME

Object number (NORAD): 31929

Object ID (CCSDS): 31929

Country: PEOPLES REPUBLIC OF CHINA (PRC)

Current information (Y/N): Y

RCS size: SMALL

Orbital parameters

Period: 100.406 minutes

Inclination: 98.7654 deg

SMA: 7155.944 km

Apoapsis: 830.621 km

Periapsis: 724.998 km

RAAN: 251.4054 deg

Eccentricy: 0.0073801

Argument of periapsis: 346.6515 deg

Mean anomaly: 13.2715 deg

Mean motion: 14.34175622 rev/day

Mean motion (dot): 0.00001635 rev/day2

B* drag term: 0.0005818 1/REarth

Two-line elements (TLE)

Creation date: May 6, 2025, 3:54 a.m.

Reference frame: TEME

Reference center: EARTH

Epoch: May 5, 2025, 1:58 p.m. UTC

TLE line 0: 0 FENGYUN 1C DEB

TLE line 1: 1 31929U 99025CME 25125.58216950 .00001635 00000-0 58180-3 0 9990

TLE line 2: 2 31929 98.7654 251.4054 0073801 346.6515 13.2715 14.34175622674758

Live tracking on map

Real-time ground track for satellite FENGYUN 1C DEB.

In-orbit conjunctions

A list of the most updated potential collisions computed for object FENGYUN 1C DEB.

Target Orbit TCA Probability of collision Miss distance Type
SL-16 R/B LEO 2024-11-15 00:26:46 0.0003682641 90.0 (m) ROCKET BODY
CZ-6A R/B SSO 2024-09-17 20:54:00 0.0005416703 782.0 (m) ROCKET BODY

Associated space launch

Chinese polar orbiting meteorological satellite

FENGYUN 1C DEB was lifted into orbit during the mission ‘Long March 4B | Feng Yun 1C’, on board a Long March 4B space rocket.

The launch took place on May 10, 1999, 1:33 a.m. from Launch Complex 7.

For more information about the launch, click the button.

Launch to space Long March 4B | Feng Yun 1C
Long March 4B | Feng Yun 1C

Agency: N/A

Status: Launch Successful

Launch date: May 10, 1999, 1:33 a.m. UTC

Rocket: Long March 4B

Launch pad: Launch Complex 7

Location: Taiyuan Satellite Launch Center, People's Republic of China

...

Latest news about this satellite

There are no fresh news available about this satellite. Check back as we update our databases every day.


Newsletter sign-up

Weekly statistics, charts and insights to help you stay on top of the space industry.